When you browse on this site, cookies collect data to enhance your experience and personalize the content and advertising you see.
Visit our Privacy Policy to learn more. By continuing to use the site, you agree to this use of cookies and data.
  • In Romania
  • List of Countries
  • For 7 days
  • Water Temperature
  • Satellite Maps
  • Weather Map
  • Weather Widgets
  • user-avatar
    Login

    Hourly Weather Abenra

    Today, 20 May, Monday

    Time Temperature Precipitation Wind Pressure Humidity
    00:00 +13°C° 0 mm 3 mps 751 mmHg 96%
    01:00 +13°C° 0 mm 3 mps 751 mmHg 96%
    02:00 +14°C° 0 mm 2 mps 751 mmHg 96%
    03:00 +14°C° 0 mm 2 mps 751 mmHg 96%
    04:00 +13°C° 0 mm 2 mps 751 mmHg 96%
    05:00 +14°C° 0 mm 2 mps 751 mmHg 95%
    06:00 +15°C° 0 mm 2 mps 751 mmHg 93%
    07:00 +14°C° 0 mm 3 mps 751 mmHg 91%
    08:00 +16°C° 0 mm 3 mps 751 mmHg 89%
    09:00 +17°C° 0 mm 3 mps 751 mmHg 86%
    10:00 +17°C° 0 mm 3 mps 751 mmHg 84%
    11:00 +18°C° 0 mm 2 mps 751 mmHg 82%
    12:00 +18°C° 0 mm 2 mps 751 mmHg 80%
    13:00 +19°C° 0 mm 2 mps 751 mmHg 78%
    14:00 +19°C° 0.1 mm 2 mps 751 mmHg 78%
    15:00 +19°C° 0.1 mm 2 mps 751 mmHg 79%
    16:00 +19°C° 0.1 mm 2 mps 750 mmHg 79%
    17:00 +19°C° 0.1 mm 2 mps 750 mmHg 81%
    18:00 +19°C° 0.1 mm 2 mps 750 mmHg 83%
    19:00 +19°C° 0.1 mm 2 mps 750 mmHg 85%
    20:00 +17°C° 0 mm 2 mps 750 mmHg 88%
    21:00 +16°C° 0 mm 2 mps 751 mmHg 92%
    22:00 +14°C° 0 mm 3 mps 751 mmHg 95%
    23:00 +14°C° 0 mm 3 mps 751 mmHg 94%

    Tomorrow, 21 May, Tuesday

    Time Temperature Precipitation Wind Pressure Humidity
    00:00 +13°C° 0 mm 3 mps 751 mmHg 94%
    01:00 +13°C° 0 mm 3 mps 751 mmHg 94%
    02:00 +13°C° 0 mm 3 mps 751 mmHg 95%
    03:00 +13°C° 0 mm 3 mps 750 mmHg 96%
    04:00 +12°C° 0 mm 3 mps 750 mmHg 97%
    05:00 +13°C° 0 mm 3 mps 750 mmHg 96%
    06:00 +14°C° 0 mm 3 mps 751 mmHg 95%
    07:00 +14°C° 0 mm 3 mps 751 mmHg 93%
    08:00 +16°C° 0.1 mm 3 mps 751 mmHg 92%
    09:00 +17°C° 0.1 mm 4 mps 751 mmHg 90%
    10:00 +18°C° 0.1 mm 4 mps 751 mmHg 89%
    11:00 +19°C° 0.2 mm 4 mps 751 mmHg 86%
    12:00 +20°C° 0.2 mm 4 mps 751 mmHg 83%
    13:00 +21°C° 0.2 mm 4 mps 751 mmHg 80%
    14:00 +21°C° 1 mm 4 mps 751 mmHg 81%
    15:00 +21°C° 1 mm 5 mps 751 mmHg 81%
    16:00 +21°C° 1 mm 5 mps 751 mmHg 82%
    17:00 +20°C° 1.1 mm 5 mps 751 mmHg 85%
    18:00 +19°C° 1.1 mm 5 mps 751 mmHg 88%
    19:00 +17°C° 1.1 mm 5 mps 751 mmHg 91%
    20:00 +16°C° 0.4 mm 5 mps 751 mmHg 92%
    21:00 +14°C° 0.4 mm 5 mps 751 mmHg 93%
    22:00 +13°C° 0.4 mm 5 mps 752 mmHg 94%
    23:00 +13°C° 0 mm 5 mps 752 mmHg 93%

    Day after tomorrow, 22 May, Wednesday

    Time Temperature Precipitation Wind Pressure Humidity
    00:00 +12°C° 0 mm 5 mps 752 mmHg 93%
    01:00 +10°C° 0 mm 5 mps 752 mmHg 92%
    02:00 +10°C° 0.1 mm 5 mps 752 mmHg 92%
    03:00 +10°C° 0.1 mm 5 mps 752 mmHg 93%
    04:00 +9°C° 0.1 mm 5 mps 752 mmHg 93%
    05:00 +10°C° 0 mm 6 mps 752 mmHg 91%
    06:00 +10°C° 0 mm 6 mps 753 mmHg 90%
    07:00 +11°C° 0 mm 6 mps 753 mmHg 88%
    08:00 +12°C° 0 mm 7 mps 753 mmHg 84%
    09:00 +14°C° 0 mm 7 mps 754 mmHg 80%
    10:00 +15°C° 0 mm 7 mps 754 mmHg 76%
    11:00 +15°C° 0 mm 7 mps 754 mmHg 75%
    12:00 +15°C° 0 mm 8 mps 755 mmHg 74%
    13:00 +15°C° 0 mm 8 mps 755 mmHg 72%
    14:00 +15°C° 0 mm 8 mps 755 mmHg 73%
    15:00 +15°C° 0 mm 8 mps 755 mmHg 74%
    16:00 +13°C° 0 mm 8 mps 756 mmHg 75%
    17:00 +12°C° 0 mm 8 mps 756 mmHg 77%
    18:00 +11°C° 0 mm 8 mps 756 mmHg 80%
    19:00 +10°C° 0 mm 7 mps 756 mmHg 82%
    20:00 +9°C° 0 mm 7 mps 757 mmHg 80%
    21:00 +9°C° 0 mm 6 mps 757 mmHg 77%
    22:00 +9°C° 0 mm 5 mps 757 mmHg 75%
    23:00 +8°C° 0 mm 5 mps 757 mmHg 79%

    23 May, Thursday

    Time Temperature Precipitation Wind Pressure Humidity
    00:00 +7°C° 0 mm 5 mps 757 mmHg 84%
    01:00 +6°C° 0 mm 4 mps 757 mmHg 88%
    02:00 +6°C° 0 mm 4 mps 757 mmHg 88%
    03:00 +6°C° 0 mm 5 mps 757 mmHg 88%
    04:00 +6°C° 0 mm 5 mps 758 mmHg 88%
    05:00 +7°C° 0 mm 5 mps 758 mmHg 84%
    06:00 +8°C° 0 mm 5 mps 758 mmHg 80%
    07:00 +10°C° 0 mm 6 mps 758 mmHg 75%
    08:00 +11°C° 0 mm 6 mps 758 mmHg 72%
    09:00 +13°C° 0 mm 6 mps 758 mmHg 68%
    10:00 +13°C° 0 mm 6 mps 759 mmHg 64%
    11:00 +14°C° 0 mm 6 mps 758 mmHg 63%
    12:00 +14°C° 0 mm 7 mps 758 mmHg 62%
    13:00 +15°C° 0 mm 7 mps 758 mmHg 61%
    14:00 +15°C° 0 mm 7 mps 758 mmHg 63%
    15:00 +14°C° 0 mm 7 mps 758 mmHg 65%
    16:00 +14°C° 0 mm 7 mps 757 mmHg 68%
    17:00 +13°C° 0 mm 6 mps 757 mmHg 71%
    18:00 +13°C° 0 mm 5 mps 757 mmHg 73%
    19:00 +12°C° 0 mm 4 mps 757 mmHg 76%
    20:00 +11°C° 0 mm 4 mps 757 mmHg 77%
    21:00 +11°C° 0 mm 4 mps 756 mmHg 77%
    22:00 +10°C° 0 mm 3 mps 756 mmHg 78%
    23:00 +10°C° 0 mm 3 mps 756 mmHg 81%

    24 May, Friday

    Time Temperature Precipitation Wind Pressure Humidity
    00:00 +9°C° 0 mm 3 mps 755 mmHg 84%
    01:00 +9°C° 0 mm 3 mps 755 mmHg 88%
    02:00 +9°C° 0 mm 3 mps 755 mmHg 86%
    03:00 +9°C° 0 mm 3 mps 754 mmHg 84%
    04:00 +10°C° 0 mm 3 mps 754 mmHg 83%
    05:00 +10°C° 0 mm 3 mps 754 mmHg 80%
    06:00 +11°C° 0 mm 3 mps 753 mmHg 77%
    07:00 +11°C° 0 mm 3 mps 753 mmHg 74%
    08:00 +12°C° 0 mm 3 mps 753 mmHg 74%
    09:00 +13°C° 0 mm 3 mps 753 mmHg 73%
    10:00 +13°C° 0 mm 3 mps 752 mmHg 72%
    11:00 +14°C° 0 mm 3 mps 752 mmHg 72%
    12:00 +15°C° 0 mm 2 mps 752 mmHg 72%
    13:00 +15°C° 0 mm 2 mps 752 mmHg 72%
    14:00 +16°C° 0 mm 2 mps 751 mmHg 71%
    15:00 +16°C° 0 mm 1 mps 751 mmHg 70%
    16:00 +16°C° 0 mm 1 mps 751 mmHg 69%
    17:00 +16°C° 0 mm 1 mps 751 mmHg 71%
    18:00 +16°C° 0 mm 1 mps 750 mmHg 74%
    19:00 +16°C° 0 mm 1 mps 750 mmHg 77%
    20:00 +15°C° 0 mm 1 mps 751 mmHg 77%
    21:00 +14°C° 0 mm 2 mps 751 mmHg 77%
    22:00 +14°C° 0 mm 2 mps 751 mmHg 77%
    23:00 +13°C° 0 mm 2 mps 751 mmHg 82%

    25 May, Saturday

    Time Temperature Precipitation Wind Pressure Humidity
    00:00 +11°C° 0 mm 3 mps 751 mmHg 87%
    01:00 +10°C° 0 mm 3 mps 751 mmHg 92%
    02:00 +9°C° 0 mm 3 mps 751 mmHg 93%
    03:00 +8°C° 0 mm 3 mps 751 mmHg 94%
    04:00 +8°C° 0 mm 3 mps 751 mmHg 94%
    05:00 +9°C° 0 mm 3 mps 752 mmHg 91%
    06:00 +10°C° 0 mm 3 mps 752 mmHg 87%
    07:00 +10°C° 0 mm 3 mps 752 mmHg 83%
    08:00 +11°C° 0 mm 4 mps 753 mmHg 79%
    09:00 +13°C° 0 mm 4 mps 753 mmHg 75%
    10:00 +14°C° 0 mm 4 mps 753 mmHg 71%
    11:00 +14°C° 0 mm 4 mps 753 mmHg 70%
    12:00 +14°C° 0 mm 5 mps 754 mmHg 69%
    13:00 +14°C° 0 mm 5 mps 754 mmHg 68%
    14:00 +14°C° 0 mm 6 mps 754 mmHg 69%
    15:00 +13°C° 0 mm 6 mps 754 mmHg 71%
    16:00 +13°C° 0 mm 6 mps 754 mmHg 72%
    17:00 +11°C° 0 mm 6 mps 754 mmHg 75%
    18:00 +10°C° 0 mm 6 mps 754 mmHg 77%
    19:00 +10°C° 0 mm 5 mps 754 mmHg 79%
    20:00 +9°C° 0 mm 5 mps 754 mmHg 81%
    21:00 +8°C° 0 mm 5 mps 755 mmHg 83%
    22:00 +7°C° 0 mm 4 mps 755 mmHg 85%
    23:00 +7°C° 0 mm 4 mps 755 mmHg 87%
    Show more